Temperature
23 21 21 21 21 23 23 22 21 21 20 19 18 18 17 17 17 17 17 17 17 17 18 18 18 18 18 18 18 18 18 18 18 17 17 17 17 17 17 16 16 16 16 16
22 21 22 23 23 22 22 21 21 20 20 19 18 18 18 17 17 17 17 17 17 17 17 18 18 18 18 18 18 18 18 18 17 17 17 17 17 17 16 16 16 16 16 15
22 23 24 24 24 23 22 21 21 20 20 19 19 18 18 17 17 17 17 17 18 17 18 18 18 18 18 18 18 18 18 17 17 17 17 17 17 17 16 16 16 16 15 15
22 23 24 24 24 23 22 22 21 20 19 18 19 18 18 17 17 17 17 17 18 18 18 18 18 18 18 18 18 18 18 17 17 17 17 17 17 16 16 16 15 15 15 15
23 24 25 24 24 24 22 20 20 19 18 18 18 17 17 17 17 17 17 18 18 18 18 18 18 18 18 18 18 18 18 17 17 17 17 17 16 16 16 15 15 15 15 15
23 24 25 24 23 23 21 19 18 16 16 18 18 17 18 16 17 17 17 18 18 19 19 18 18 18 18 18 18 18 18 17 17 17 17 16 16 16 16 15 15 15 15 14
23 24 24 23 22 21 20 19 18 19 17 18 18 17 17 18 18 18 18 18 19 19 19 19 18 18 18 18 18 18 18 17 17 17 16 16 16 16 15 15 15 15 14 14
22 22 23 23 22 21 20 20 19 20 19 18 18 17 18 19 19 19 20 20 19 19 19 19 19 19 19 19 18 18 18 18 17 17 16 16 16 15 15 15 14 14 14 14
21 22 23 23 23 21 20 19 18 17 17 17 17 18 19 19 19 18 19 19 19 20 20 20 20 20 20 19 19 19 18 18 17 17 17 16 16 15 15 15 14 14 14 14
21 22 23 23 22 21 20 17 16 17 18 19 19 19 18 20 19 18 18 19 20 20 20 21 20 20 20 20 19 19 18 18 18 17 17 16 16 15 15 15 14 14 14 14
21 21 22 22 22 21 19 18 16 15 16 18 19 19 19 19 18 18 18 20 21 21 21 21 21 21 21 20 20 19 19 18 18 17 17 16 16 15 15 15 14 14 14 14
20 19 20 21 21 21 21 19 17 18 18 16 17 18 20 19 18 19 20 21 22 22 22 22 22 21 21 20 20 19 19 18 18 17 17 16 16 15 15 15 15 14 14 14
19 19 20 21 20 21 21 19 17 16 15 15 17 19 20 18 18 20 20 21 22 22 22 22 22 21 21 21 20 20 19 19 18 18 17 17 16 16 15 15 15 15 14 14
19 18 19 21 20 20 21 20 17 17 16 16 17 19 19 19 18 18 20 21 22 22 22 22 22 22 22 21 21 20 20 19 18 18 17 17 17 16 16 15 15 15 15 14
19 19 19 19 20 21 21 21 19 18 18 18 19 18 19 18 18 19 20 21 21 22 22 22 22 22 22 21 21 20 20 19 19 18 18 17 17 16 16 16 15 15 15 14
17 19 19 20 21 21 21 21 20 20 19 18 19 19 18 18 19 19 19 20 20 22 22 22 22 22 22 21 21 21 20 19 19 18 18 17 17 17 16 16 16 15 15 15
16 17 18 19 20 21 20 20 20 20 19 19 19 19 18 17 17 18 19 20 21 22 23 23 22 22 22 21 21 21 20 20 19 18 18 17 17 17 16 16 16 15 15 15
16 16 16 17 20 20 20 20 20 19 19 18 17 17 17 17 18 19 20 21 21 22 22 22 22 22 22 21 21 20 20 19 19 19 18 18 17 17 17 16 16 16 15 15
15 15 15 16 18 19 19 19 19 19 19 17 17 17 17 18 18 18 19 20 21 22 22 22 22 22 22 22 21 20 20 19 19 19 18 18 18 17 17 16 16 16 15 15
14 15 15 16 18 19 19 19 19 19 19 18 16 16 16 17 17 17 19 20 21 21 21 21 21 21 21 21 20 20 20 19 19 19 18 18 18 17 17 16 16 16 15 15
16 15 16 16 17 17 18 18 18 19 18 17 17 16 16 16 17 18 19 20 20 21 20 20 20 21 21 20 20 19 19 19 19 18 18 18 17 17 16 16 16 15 15 15
16 15 15 15 17 17 17 17 17 17 17 17 17 17 17 17 17 18 19 20 20 20 20 20 20 20 20 19 19 19 19 18 18 18 17 17 17 16 16 16 15 15 15 14
15 15 14 15 16 16 16 17 17 17 17 17 17 17 17 17 17 18 18 19 19 19 19 19 19 19 18 18 18 18 18 17 17 17 16 16 16 16 15 15 15 14 14 14
15 13 14 14 15 15 16 16 17 17 17 17 17 17 17 17 17 18 18 18 18 18 18 18 18 18 17 17 17 17 16 16 16 16 16 15 15 15 15 14 14 14 13 13
15 13 14 14 14 15 16 16 17 17 17 17 17 17 17 17 17 17 17 17 17 17 17 17 17 16 16 16 16 15 15 15 15 15 15 14 14 14 13 13 13 13 12 12
13 13 14 15 15 14 15 16 17 17 16 16 17 16 17 17 16 16 16 16 16 16 16 16 15 15 15 15 14 14 14 14 14 14 13 13 13 12 12 12 12 12 12 12
Wind_Speed
2 2 5 8 9 8 5 4 6 4 1 3 2 3 3 3 3 3 3 3 2 2 2 3 4 5 5 5 5 6 7 5 5 4 3 3 3 2 2 2 3 4 5 6
3 6 10 7 5 6 5 4 4 1 1 2 1 2 3 4 4 4 5 4 4 3 3 4 4 5 5 5 5 6 7 6 5 4 3 3 3 3 2 2 3 3 4 5
8 8 3 2 2 4 4 6 5 4 2 3 2 4 3 3 2 3 5 5 5 6 5 5 5 5 7 7 7 8 7 6 6 5 4 4 4 4 3 2 2 2 2 4
8 7 4 3 4 5 4 3 5 5 4 1 1 3 5 4 4 6 7 7 6 6 6 6 7 7 8 8 7 7 7 6 6 6 6 6 4 3 2 1 1 2 3 2
7 3 2 3 4 4 3 5 6 4 4 2 2 1 7 1 5 8 9 9 8 8 8 8 9 9 8 8 7 7 6 6 5 6 6 6 5 3 2 2 2 2 2 3
7 3 3 3 2 5 7 7 7 6 5 2 2 2 6 5 7 6 8 10 9 9 9 8 8 8 7 7 7 7 7 5 5 6 6 7 7 6 5 3 2 1 1 2
5 3 2 3 5 3 5 6 4 5 5 5 2 3 8 7 7 8 10 11 9 9 9 9 9 9 9 9 9 8 8 6 6 6 6 6 7 6 6 4 3 3 1 0
4 6 4 4 6 7 5 7 6 4 4 5 2 5 7 5 4 5 6 8 8 9 9 10 11 11 11 10 10 9 9 7 7 7 6 5 6 5 4 4 4 4 3 2
8 7 2 2 3 8 6 4 5 6 2 2 5 7 8 1 2 5 6 7 10 11 11 11 10 10 11 11 11 11 10 8 8 7 7 6 6 5 5 4 4 3 3 2
9 5 3 2 5 4 5 9 6 5 4 3 6 5 5 6 7 7 8 10 11 11 11 11 10 11 11 10 9 9 9 9 8 8 7 6 6 6 5 4 4 4 4 3
6 6 2 1 5 6 5 5 5 5 5 5 3 7 7 9 10 11 13 12 12 12 13 12 11 10 10 9 9 10 9 8 8 8 7 6 6 5 5 5 5 4 4 4
4 5 3 5 2 4 6 8 8 5 4 5 4 8 6 8 8 10 12 12 11 12 11 11 10 10 9 10 10 11 10 10 10 9 8 7 6 6 5 5 5 5 5 4
6 6 2 5 4 0 3 5 5 6 5 6 5 7 4 1 5 7 9 10 10 10 10 9 9 10 11 11 11 11 11 11 10 9 8 7 7 7 7 7 6 5 5 5
5 4 6 8 7 5 4 5 6 7 5 6 8 9 7 4 6 7 8 9 9 10 10 10 10 11 11 11 11 11 11 10 9 9 9 9 9 9 8 7 6 6 6 6
5 4 5 6 5 4 5 5 8 8 8 9 8 8 10 8 9 9 8 8 8 8 10 12 13 12 11 10 10 11 11 10 10 10 10 10 9 7 7 7 7 6 6 7
3 4 3 3 3 4 3 5 6 7 6 7 6 9 8 5 3 4 6 8 10 11 11 12 11 11 12 13 12 11 11 10 10 11 11 9 8 7 8 8 7 7 7 6
3 5 4 3 2 1 5 7 6 5 5 7 8 8 3 2 3 5 6 8 11 11 11 11 11 12 13 13 12 12 12 10 10 11 10 9 9 9 9 8 7 8 8 7
5 4 3 2 2 6 8 2 4 5 5 5 6 6 4 5 5 3 2 6 7 7 8 9 10 10 10 9 9 9 8 9 10 10 9 9 9 10 8 7 8 9 6 7
5 7 4 3 3 6 6 3 3 3 4 3 4 5 3 2 2 3 2 2 4 5 6 7 8 7 7 8 8 8 8 8 9 9 10 9 9 9 8 9 10 8 6 8
4 4 5 4 4 6 6 1 2 3 4 2 2 2 1 3 2 3 5 2 2 2 1 1 4 4 5 5 7 8 8 8 10 10 9 8 8 9 9 10 8 6 6 8
3 3 3 4 4 7 4 1 4 4 5 1 1 1 2 2 3 3 3 2 2 3 4 3 4 4 4 5 7 6 6 9 9 7 6 5 6 7 7 6 5 6 6 7
5 5 4 4 3 7 1 2 5 6 1 1 1 1 2 1 1 2 3 3 5 6 6 5 4 3 4 6 7 6 6 5 3 3 4 4 4 4 4 4 5 5 6 6
5 6 6 7 7 4 2 3 2 2 2 1 1 1 2 2 3 3 4 6 6 6 5 4 5 5 5 4 5 5 2 2 4 3 2 2 2 2 2 3 5 4 4 5
2 2 3 3 5 4 3 2 1 2 2 1 2 3 4 5 5 6 6 7 7 7 6 5 7 7 5 4 4 3 3 4 5 4 2 1 0 1 1 2 3 4 5 6
3 4 3 4 5 3 2 0 2 3 3 4 5 6 6 8 7 7 7 7 7 7 6 6 6 6 5 5 5 3 3 5 5 4 2 2 1 1 2 3 3 5 6 7
3 5 6 6 5 4 1 1 4 6 5 6 7 8 7 8 8 8 7 6 6 6 6 6 7 6 5 4 4 3 4 5 5 4 2 1 1 2 2 4 5 7 9 12
Wind_Direction
83 63 247 235 210 220 232 233 257 263 161 125 174 215 222 212 196 199 212 216 213 190 157 149 149 151 141 132 136 136 140 145 136 125 125 121 118 107 91 105 122 128 134 136
13 266 246 239 219 214 221 232 241 256 115 128 172 259 236 215 214 214 216 213 190 165 143 141 161 170 150 144 155 152 156 155 150 140 130 127 122 110 97 77 88 108 134 144
213 247 262 246 250 201 219 199 209 191 107 61 56 326 261 241 215 217 219 212 199 188 173 168 170 174 152 163 171 168 160 150 142 130 115 96 77 65 63 58 55 45 116 151
234 261 266 264 251 182 232 220 161 140 125 313 73 285 274 232 239 225 218 210 209 195 181 176 173 180 177 178 167 159 150 142 139 137 137 136 136 142 159 137 95 51 71 115
245 251 270 262 257 171 163 78 89 97 109 51 19 222 285 217 233 231 219 214 209 197 189 184 182 186 184 176 164 155 148 144 144 143 142 134 131 138 126 107 95 69 46 63
245 249 221 204 51 103 115 74 58 52 65 347 257 203 279 231 220 218 211 210 205 196 190 185 181 177 178 168 159 155 153 154 150 145 143 146 148 148 140 137 130 97 52 35
287 279 216 131 101 61 89 89 27 355 1 265 251 232 255 250 222 203 201 202 196 189 185 180 178 181 182 175 171 166 163 165 160 154 157 162 161 159 162 166 166 160 157 179
214 275 228 179 169 175 175 142 159 213 240 283 303 247 257 265 232 198 190 184 180 184 188 189 189 187 185 180 175 172 172 174 171 169 172 171 166 164 170 174 174 182 191 203
188 236 252 182 157 139 139 154 151 131 133 302 286 283 299 273 186 185 182 179 189 193 195 197 192 188 184 181 182 180 178 180 181 180 174 176 177 177 181 180 179 188 201 207
167 207 238 186 98 56 136 140 106 122 151 265 293 282 255 235 211 200 196 199 203 197 198 197 193 191 190 186 182 177 180 186 185 182 184 188 187 188 183 176 188 200 209 208
150 171 245 129 176 173 128 115 113 119 153 166 258 276 230 212 200 195 203 204 203 200 200 199 196 191 185 177 175 180 184 183 184 188 190 187 187 187 184 193 206 205 209 210
148 134 210 250 245 159 166 167 150 156 204 180 188 266 271 218 206 196 202 206 204 203 202 198 191 181 179 182 183 187 187 189 193 189 186 190 188 185 193 209 217 211 217 221
142 123 93 344 344 315 174 160 150 129 123 159 181 260 307 227 212 211 206 205 203 200 198 193 186 187 190 190 189 191 192 195 192 183 184 188 190 194 205 215 217 213 217 226
119 130 171 201 219 200 201 174 153 139 158 198 220 249 288 279 241 231 220 209 201 199 195 192 194 196 195 192 191 192 195 193 186 182 186 194 201 204 210 213 214 215 218 224
110 174 210 230 227 194 212 207 180 189 192 194 228 229 251 243 231 228 220 205 190 194 197 200 202 199 193 189 191 193 194 189 183 183 192 205 207 207 209 213 217 218 221 228
105 169 173 265 239 199 230 240 203 207 204 217 244 258 250 253 231 229 218 201 200 203 203 202 199 193 193 195 195 193 195 189 179 188 200 204 199 201 211 218 217 220 228 232
132 141 145 246 300 89 254 233 207 206 206 193 220 244 272 258 239 233 223 209 211 211 206 198 194 193 195 196 191 193 195 181 182 194 201 200 199 205 214 217 215 223 229 228
141 129 147 178 116 226 247 243 192 203 231 220 243 266 253 238 246 248 221 199 208 208 204 205 200 195 191 185 185 184 172 177 189 198 203 202 201 211 212 210 220 226 223 225
151 144 137 142 194 267 284 232 169 185 263 221 233 273 273 275 56 6 334 242 213 217 214 205 196 193 183 176 174 162 170 177 188 203 210 208 203 207 209 215 223 223 220 229
73 109 128 143 175 235 251 175 138 123 288 252 194 270 312 87 87 293 319 324 7 27 45 151 141 134 155 168 151 159 176 183 202 208 209 204 198 203 212 220 225 221 222 235
86 81 138 169 211 257 259 172 114 164 248 288 153 157 101 113 192 267 323 21 66 65 60 83 110 131 149 139 142 163 178 203 212 199 190 190 197 207 218 224 226 228 231 240
169 158 174 152 196 256 277 136 177 213 211 131 116 125 127 138 1 3 19 38 63 68 63 78 99 103 100 125 145 166 200 216 174 162 177 197 206 215 222 224 237 236 234 243
188 186 183 187 214 249 258 227 241 164 171 193 142 147 128 95 60 43 42 42 51 58 64 79 100 92 78 104 135 158 196 130 130 139 174 213 214 214 223 230 246 249 243 249
227 145 153 235 263 266 264 240 219 154 164 145 129 115 102 92 72 60 57 54 58 60 66 75 88 87 75 77 98 121 117 120 117 119 121 107 88 306 259 239 241 249 256 261
210 160 176 248 268 305 333 317 105 96 103 96 87 89 97 97 84 76 68 61 65 66 66 77 88 91 86 81 79 77 90 105 103 99 86 68 36 327 306 292 268 263 258 252
203 185 185 226 228 186 227 41 95 95 89 93 93 76 72 92 99 92 80 70 74 74 73 79 84 87 82 82 73 60 72 92 96 83 63 44 6 326 311 306 303 276 267 276
Height
1499 1504 1506 1502 1500 1500 1501 1506 1509 1505 1501 1503 1506 1507 1505 1504 1505 1506 1507 1507 1508 1509 1511 1513 1516 1519 1522 1525 1528 1531 1534 1536 1539 1541 1542 1544 1546 1547 1549 1550 1551 1552 1553 1553
1503 1504 1494 1492 1493 1497 1500 1506 1506 1503 1501 1503 1507 1507 1504 1503 1504 1504 1505 1507 1507 1508 1510 1513 1516 1518 1521 1524 1528 1530 1534 1536 1539 1540 1542 1544 1545 1546 1548 1549 1550 1551 1552 1552
1502 1495 1488 1490 1492 1496 1498 1501 1502 1505 1503 1505 1508 1510 1505 1503 1503 1504 1504 1505 1507 1508 1509 1512 1515 1517 1521 1525 1528 1530 1533 1535 1537 1540 1541 1543 1544 1546 1547 1548 1549 1550 1551 1551
1497 1489 1488 1489 1491 1492 1499 1493 1496 1501 1510 1516 1513 1523 1507 1503 1502 1502 1502 1503 1504 1507 1509 1511 1514 1517 1521 1525 1528 1530 1533 1535 1537 1539 1540 1542 1543 1544 1546 1547 1548 1549 1549 1550
1493 1487 1487 1490 1488 1488 1494 1493 1498 1504 1511 1518 1516 1522 1513 1504 1503 1500 1499 1500 1502 1505 1508 1510 1513 1517 1521 1524 1527 1530 1532 1535 1537 1538 1540 1541 1542 1544 1544 1545 1546 1547 1548 1548
1487 1484 1484 1485 1485 1487 1492 1499 1505 1513 1518 1526 1518 1522 1516 1505 1498 1495 1495 1497 1500 1503 1506 1510 1513 1517 1520 1524 1527 1529 1532 1534 1536 1537 1539 1540 1541 1542 1543 1544 1545 1545 1546 1546
1490 1484 1482 1482 1489 1492 1494 1509 1526 1527 1534 1530 1517 1519 1512 1493 1489 1489 1491 1494 1498 1501 1505 1508 1512 1515 1519 1522 1525 1528 1531 1533 1535 1537 1538 1539 1540 1541 1542 1542 1543 1544 1544 1544
1498 1498 1483 1481 1485 1493 1496 1503 1524 1532 1535 1528 1517 1518 1501 1486 1485 1486 1489 1493 1497 1500 1504 1507 1510 1514 1517 1521 1524 1527 1530 1532 1534 1536 1537 1538 1539 1540 1540 1541 1541 1542 1542 1543
1496 1495 1480 1478 1479 1485 1497 1502 1504 1521 1526 1530 1521 1509 1493 1484 1484 1486 1488 1492 1494 1498 1501 1505 1509 1512 1516 1519 1522 1526 1528 1531 1533 1534 1536 1537 1538 1538 1539 1539 1539 1540 1540 1540
1482 1491 1481 1478 1479 1484 1488 1498 1511 1521 1530 1531 1520 1512 1504 1488 1486 1485 1487 1488 1491 1495 1499 1502 1506 1510 1513 1517 1521 1524 1527 1529 1531 1533 1534 1536 1536 1537 1537 1537 1537 1538 1538 1538
1476 1487 1485 1482 1483 1487 1493 1499 1507 1518 1520 1529 1528 1514 1484 1481 1480 1481 1482 1484 1487 1491 1495 1499 1503 1507 1511 1515 1518 1521 1524 1527 1529 1531 1533 1534 1534 1535 1535 1535 1536 1536 1536 1536
1475 1485 1492 1485 1478 1477 1483 1490 1501 1511 1515 1521 1524 1511 1474 1474 1475 1476 1479 1481 1484 1488 1492 1496 1500 1504 1508 1511 1515 1518 1521 1524 1526 1528 1530 1531 1532 1533 1533 1534 1534 1535 1535 1535
1474 1486 1497 1496 1492 1483 1483 1486 1493 1501 1511 1521 1521 1503 1473 1472 1473 1474 1476 1478 1481 1485 1489 1493 1497 1500 1504 1507 1511 1514 1518 1520 1523 1525 1527 1529 1530 1531 1531 1532 1533 1533 1533 1533
1468 1482 1491 1496 1491 1482 1483 1484 1490 1497 1509 1513 1507 1493 1477 1474 1473 1472 1473 1475 1478 1481 1485 1489 1492 1496 1499 1503 1507 1510 1514 1517 1520 1522 1524 1525 1527 1528 1529 1530 1530 1531 1531 1530
1468 1480 1479 1478 1475 1476 1477 1478 1483 1489 1491 1497 1489 1486 1475 1470 1469 1468 1469 1472 1474 1477 1480 1484 1487 1491 1495 1499 1503 1506 1510 1513 1515 1518 1520 1522 1524 1525 1526 1527 1527 1528 1528 1528
1470 1476 1477 1477 1472 1473 1476 1474 1476 1479 1479 1482 1480 1478 1466 1465 1466 1466 1466 1468 1470 1472 1475 1478 1482 1486 1490 1494 1498 1501 1505 1508 1511 1514 1516 1518 1520 1521 1523 1524 1524 1525 1525 1525
1474 1477 1483 1485 1476 1475 1482 1472 1471 1472 1471 1473 1476 1470 1464 1464 1463 1463 1463 1464 1465 1467 1470 1473 1476 1480 1484 1489 1493 1497 1501 1504 1507 1510 1512 1515 1516 1517 1519 1520 1521 1521 1521 1521
1473 1479 1485 1487 1483 1491 1475 1463 1464 1467 1467 1467 1467 1464 1463 1462 1460 1461 1461 1461 1463 1465 1468 1471 1473 1477 1481 1485 1490 1494 1498 1501 1503 1505 1508 1510 1512 1513 1515 1516 1517 1517 1517 1517
1468 1476 1486 1491 1489 1483 1471 1463 1464 1467 1467 1463 1464 1462 1461 1459 1459 1461 1461 1461 1462 1464 1466 1468 1471 1475 1478 1482 1486 1490 1494 1496 1499 1501 1504 1506 1508 1509 1511 1511 1512 1513 1513 1512
1470 1473 1482 1488 1487 1489 1470 1461 1461 1465 1469 1461 1461 1461 1460 1459 1464 1464 1461 1460 1461 1463 1466 1467 1470 1473 1476 1480 1484 1487 1490 1493 1495 1497 1500 1502 1504 1505 1506 1507 1508 1508 1508 1507
1475 1478 1482 1485 1485 1477 1463 1460 1462 1474 1470 1461 1460 1460 1460 1461 1463 1463 1461 1460 1461 1462 1465 1467 1469 1471 1475 1478 1481 1484 1487 1489 1491 1494 1496 1498 1500 1501 1502 1503 1503 1503 1503 1502
1473 1478 1482 1485 1486 1479 1461 1460 1464 1464 1460 1460 1460 1460 1460 1461 1461 1461 1461 1460 1459 1461 1464 1466 1468 1471 1473 1476 1479 1481 1483 1486 1489 1491 1493 1494 1496 1497 1498 1498 1498 1498 1497 1495
1468 1469 1471 1473 1472 1462 1459 1459 1459 1459 1460 1460 1460 1461 1461 1461 1461 1461 1461 1461 1460 1462 1465 1467 1469 1471 1473 1475 1477 1479 1481 1484 1486 1487 1489 1490 1491 1492 1492 1492 1492 1492 1491 1489
1464 1464 1466 1466 1461 1458 1457 1457 1458 1458 1459 1460 1461 1461 1461 1461 1462 1462 1462 1463 1463 1465 1466 1468 1469 1470 1472 1474 1476 1478 1480 1481 1483 1484 1485 1486 1487 1487 1486 1486 1486 1485 1483 1482
1460 1463 1464 1463 1459 1457 1456 1456 1457 1459 1460 1461 1461 1462 1462 1463 1463 1464 1465 1465 1466 1467 1469 1470 1470 1471 1473 1474 1475 1477 1478 1479 1480 1481 1482 1482 1482 1482 1481 1480 1480 1478 1477 1476
1459 1460 1462 1460 1455 1456 1457 1457 1458 1459 1461 1461 1462 1463 1464 1465 1465 1466 1467 1468 1469 1470 1471 1471 1471 1472 1473 1475 1475 1476 1477 1477 1478 1478 1478 1478 1478 1477 1476 1475 1474 1473 1472 1470